Content
SEND FEEDBACK

Daily
Averages
Monthly
Summary
United States of America

SOUTHPORT, NORTH CAROLINA


Home > North America > United States > North Carolina
Elevation: 38 feet     Latitude: 34 00N     Longitude: 078 01W

WEATHER
 
SELECT A DAY
Number of Records: 143,604;   Date Range: 8/21/01 - 10/18/14
 
SHARE

PRINT THIS DATA

[ ← Previous Day ]
WEATHER ALMANAC - FEBRUARY 7, 2013
[ Next Day → ]
[ °C ]   °F
Weather ElementAverageHighLow
Temperature50.4 °F55.4 °F (10:55 am)45 °F (4:35 am)
Dewpoint47.5 °F51.1 °F (11:55 pm)43.5 °F (12:35 am)
Humidity90.3 %97 % (10:35 pm)72 % (10:55 am)
Barometer30.10 in30.23 in (12:35 am)29.77 in (11:55 pm)
Wind Speed10.5 mph19.6 mph (6:35 pm)
Wind Gust28.8 mph (6:35 pm)
Weather ElementAverage
Visibility7.7 mi
Wind DirectionNE (43 °)

Weather ElementTotal
Precipitation1.37 in
Heating Degree Days14.8 (Base 65)
Growing Degree Days0.2 (Base 50)
Averaged from 70 records on February 7, 2013
WEATHER CONDITIONS BREAKOUT
WIND DIRECTION BREAKOUT
WEATHER BY HOUR - FEBRUARY 7, 2013
[ °C ]   °F
Local TimeTemperatureDewpointHumidityBarometerVisibilityWind DirectionWind SpeedGust SpeedPrecipitationEventsConditions
12:35 AM48.6 °F43.5 °F83 %30.23 in10.0 miENE (60°)6.9 mphClear
12:55 AM49.1 °F46.0 °F89 %30.22 in10.0 miNE (50°)8.1 mphClear
1:15 AM48.0 °F46.0 °F93 %30.21 in10.0 miNE (50°)8.1 mphClear
1:35 AM47.3 °F45.7 °F94 %30.21 in10.0 miNE (50°)8.1 mphClear
1:55 AM47.3 °F45.7 °F94 %30.21 in10.0 miNE (50°)6.9 mphClear
2:15 AM47.3 °F45.9 °F95 %30.21 in10.0 miNE (40°)6.9 mphClear
2:35 AM47.3 °F45.9 °F95 %30.21 in10.0 miNE (40°)5.8 mphClear
2:55 AM46.6 °F45.1 °F95 %30.21 in7.0 miNNE (30°)6.9 mphClear
3:15 AM46.4 °F45.0 °F95 %30.21 in7.0 miNNE (30°)5.8 mphClear
3:35 AM45.9 °F44.6 °F95 %30.20 in7.0 miNNE (30°)5.8 mphClear
3:55 AM45.9 °F44.2 °F94 %30.21 in7.0 miNNE (30°)4.6 mphClear
4:15 AM45.3 °F43.9 °F95 %30.21 in7.0 miNNE (20°)5.8 mphClear
4:35 AM45.0 °F43.7 °F95 %30.21 in7.0 miNNE (20°)5.8 mphClear
4:55 AM45.0 °F43.7 °F95 %30.21 in7.0 miNNE (30°)6.9 mphClear
5:15 AM45.0 °F43.7 °F95 %30.21 in7.0 miNNE (30°)5.8 mphClear
5:35 AM45.0 °F43.9 °F96 %30.21 in7.0 miNNE (30°)5.8 mphClear
5:55 AM45.5 °F44.2 °F95 %30.21 in7.0 miNNE (30°)6.9 mphClear
6:15 AM45.7 °F44.6 °F96 %30.22 in7.0 miNNE (30°)5.8 mphClear
6:35 AM45.7 °F44.6 °F96 %30.22 in7.0 miNNE (30°)6.9 mphClear
7:15 AM45.9 °F44.2 °F94 %30.22 in7.0 miNNE (30°)6.9 mphClear
7:35 AM46.6 °F44.6 °F93 %30.22 in7.0 miNE (40°)8.1 mphClear
7:55 AM47.8 °F44.8 °F89 %30.21 in10.0 miNE (40°)8.1 mphClear
8:15 AM48.6 °F45.1 °F88 %30.21 in10.0 miNE (50°)9.2 mph16.1 mphClear
8:35 AM50.0 °F45.9 °F86 %30.22 in10.0 miNE (50°)10.4 mph16.1 mphClear
8:55 AM50.4 °F46.4 °F86 %30.22 in10.0 miNNE (30°)9.2 mphClear
9:15 AM51.3 °F46.8 °F85 %30.23 in10.0 miNE (40°)9.2 mphClear
9:35 AM52.3 °F47.1 °F82 %30.23 in10.0 miNE (40°)9.2 mphClear
9:55 AM53.2 °F46.9 °F79 %30.22 in10.0 miNE (50°)10.4 mph17.3 mphClear
10:15 AM54.7 °F47.1 °F76 %30.21 in10.0 miNE (50°)11.5 mph17.3 mphClear
10:35 AM55.0 °F46.6 °F73 %30.20 in10.0 miENE (60°)12.7 mph23.0 mphClear
10:55 AM55.4 °F46.4 °F72 %30.20 in10.0 miNE (50°)12.7 mph19.6 mphClear
11:15 AM55.0 °F46.4 °F73 %30.20 in10.0 miNE (50°)12.7 mph19.6 mphClear
11:35 AM55.2 °F46.2 °F72 %30.19 in10.0 miNE (50°)12.7 mph21.9 mphClear
11:55 AM54.7 °F46.4 °F74 %30.17 in10.0 miENE (60°)9.2 mph20.7 mphClear
12:15 PM54.9 °F46.4 °F73 %30.16 in10.0 miENE (60°)10.4 mph20.7 mphScattered Clouds
12:35 PM54.1 °F46.4 °F75 %30.14 in10.0 miNE (40°)13.8 mph18.4 mphScattered Clouds
12:55 PM53.8 °F46.4 °F76 %30.13 in10.0 miNE (40°)12.7 mph19.6 mphScattered Clouds
1:15 PM53.6 °F46.4 °F77 %30.13 in10.0 miNE (50°)9.2 mph17.3 mphMostly Cloudy
1:35 PM53.1 °F47.3 °F81 %30.12 in10.0 miNE (50°)9.2 mph19.6 mphRainRain
1:55 PM52.2 °F48.4 °F87 %30.11 in7.0 miNE (50°)10.4 mph18.4 mphRainRain
2:15 PM51.8 °F48.6 °F89 %30.10 in7.0 miNE (50°)10.4 mph20.7 mphRainLight Rain
2:35 PM51.8 °F48.9 °F90 %30.09 in7.0 miNE (40°)12.7 mph20.7 mph0.02 inRainLight Rain
2:55 PM51.8 °F49.1 °F90 %30.07 in10.0 miNE (40°)12.7 mph20.7 mph0.02 inMostly Cloudy
3:15 PM51.8 °F49.5 °F92 %30.07 in5.0 miNE (50°)13.8 mph19.6 mphRainRain
3:35 PM51.4 °F50.0 °F95 %30.06 in4.0 miNE (50°)13.8 mph20.7 mph0.03 inRainRain
3:55 PM51.4 °F50.2 °F95 %30.06 in1.8 miNE (50°)12.7 mph25.3 mph0.12 inRainRain
4:15 PM51.4 °F50.4 °F96 %30.05 in3.0 miNE (40°)12.7 mph23.0 mph0.04 inRainLight Rain
4:35 PM51.8 °F50.4 °F95 %30.05 in4.0 miNE (50°)13.8 mph23.0 mph0.08 inRainRain
4:55 PM51.4 °F50.2 °F95 %30.04 in4.0 miNE (40°)15.0 mph24.2 mph0.14 inRainLight Rain
5:15 PM51.8 °F50.4 °F95 %30.03 in4.0 miNE (50°)12.7 mph23.0 mph0.04 inRainLight Rain
5:35 PM51.8 °F50.5 °F95 %30.02 in5.0 miNE (40°)15.0 mph24.2 mph0.06 inRainLight Rain
5:55 PM51.8 °F50.5 °F95 %30.01 in7.0 miENE (60°)12.7 mph23.0 mph0.08 inRainRain
6:15 PM51.6 °F50.4 °F95 %30.00 in5.0 miNE (50°)13.8 mph27.6 mph0.03 inRainRain
6:35 PM51.3 °F50.0 °F95 %29.99 in5.0 miNE (50°)19.6 mph28.8 mph0.09 inRainRain
6:55 PM51.1 °F50.0 °F96 %29.99 in7.0 miNE (50°)13.8 mph24.2 mph0.10 inRainLight Rain
7:15 PM51.3 °F50.0 °F95 %29.98 in7.0 miNE (50°)17.3 mph26.5 mph0.02 inRainLight Rain
7:35 PM51.8 °F50.4 °F95 %29.96 in7.0 miNE (40°)13.8 mph25.3 mph0.04 inRainLight Rain
7:55 PM51.8 °F50.0 °F94 %29.96 in5.0 miNE (40°)15.0 mph27.6 mph0.06 inRainLight Rain
8:15 PM51.6 °F50.0 °F94 %29.96 in7.0 miNE (50°)18.4 mph26.5 mph0.01 inRainLight Rain
8:35 PM50.9 °F49.5 °F95 %29.95 in7.0 miNE (40°)12.7 mph23.0 mph0.04 inRainLight Rain
8:55 PM50.9 °F49.8 °F96 %29.93 in7.0 miNE (40°)12.7 mph19.6 mph0.08 inRainLight Rain
9:15 PM51.3 °F50.2 °F96 %29.93 in7.0 miNE (40°)12.7 mph18.4 mph0.01 inRainLight Rain
9:35 PM51.8 °F50.5 °F95 %29.91 in7.0 miNE (40°)12.7 mph17.3 mph0.03 inRainLight Rain
9:55 PM51.6 °F50.5 °F96 %29.89 in7.0 miNE (40°)11.5 mph18.4 mph0.06 inRainLight Rain
10:15 PM51.8 °F50.5 °F95 %29.88 in7.0 miNE (40°)10.4 mph17.3 mph0.02 inRainRain
10:35 PM51.8 °F50.9 °F97 %29.86 in7.0 miNE (40°)11.5 mph18.4 mph0.04 inRainRain
10:55 PM51.8 °F50.9 °F97 %29.83 in10.0 miNE (40°)12.7 mph17.3 mph0.04 inRainLight Rain
11:15 PM51.8 °F50.5 °F95 %29.81 in7.0 miNE (50°)10.4 mph17.3 mph0.01 inRainRain
11:35 PM51.8 °F50.9 °F97 %29.80 in7.0 miNE (40°)10.4 mph0.01 inRainRain
11:55 PM52.0 °F51.1 °F97 %29.77 in4.0 miNE (50°)9.2 mph0.05 inRainRain
Hourly data recorded from KSUT, located miles away from Southport, North Carolina







STORIES FROM OUR PARTNERS